S51UL-6 Weather Reports


Display with metric or nautical units.
time (UTC)temp
F
wind
direction
speed
MPH
gust
MPH
rain 1hr
in
rain 24hr
in
rain mn
in
humidity
%
barometer
mb
20260901064140 62 23 0.0 0.0 0.00 0.14 0.00 90 1022.2
20260901063140 62 23 0.0 0.0 0.00 0.16 0.00 90 1021.9
20260901061140 62 23 0.0 0.0 0.00 0.16 0.00 90 1022.0
20260901060141 62 23 0.0 0.0 0.00 0.16 0.00 90 1021.9
20260901054141 61 23 0.0 0.0 0.00 0.16 0.00 90 1021.8
20260901053641 61 23 0.0 0.0 0.00 0.16 0.00 90 1021.9
20260901052140 61 23 0.0 0.0 0.00 0.28 0.00 90 1021.6
20260901051640 61 23 0.0 0.0 0.00 0.28 0.00 90 1021.5
20260901051140 60 23 0.0 0.0 0.00 0.28 0.00 90 1021.6
20260901050641 60 23 0.0 0.0 0.00 0.28 0.00 90 1021.5
20260901045141 60 23 0.0 0.0 0.00 0.28 0.00 90 1021.2
20260901044141 60 23 0.0 0.0 0.00 0.28 0.00 90 1021.4
20260901043643 60 23 0.0 0.0 0.00 0.28 0.00 90 1021.4
20260901043142 60 23 0.0 0.0 0.00 0.39 0.00 90 1021.4
20260901041641 60 23 0.0 0.0 0.00 0.39 0.00 90 1021.1
20260901041141 60 23 0.0 0.0 0.00 0.39 0.00 90 1021.0
20260901040141 60 23 0.0 0.0 0.00 0.39 0.00 89 1020.8
20260901034642 60 23 0.0 0.0 0.00 0.39 0.00 89 1020.8
20260901032142 61 23 0.0 0.0 0.00 0.63 0.00 89 1020.1
20260901031142 61 23 0.0 0.0 0.00 0.63 0.00 89 1020.2
20260901030643 61 23 0.0 0.0 0.00 0.63 0.00 89 1020.3
20260901030142 61 23 0.0 0.0 0.00 0.63 0.00 89 1020.7
20260901025642 61 23 0.0 0.0 0.00 0.63 0.00 89 1020.6
20260901024642 60 23 0.0 0.0 0.00 0.63 0.00 89 1020.9
20260901024142 60 23 0.0 0.0 0.00 0.63 0.00 89 1020.9
20260901023643 60 23 0.0 0.0 0.00 0.63 0.00 88 1020.6
20260901022644 60 23 0.0 0.0 0.00 0.63 0.00 88 1020.9
20260901020142 60 23 0.0 0.0 0.00 0.63 0.00 88 1020.8
20260901015143 60 23 0.0 0.0 0.00 0.63 0.00 88 1020.5
20260901014643 60 23 0.0 0.0 0.00 0.63 0.00 88 1020.5
20260901013646 60 23 0.0 0.0 0.00 0.63 0.00 88 1020.6
20260901013143 60 23 0.0 0.0 0.00 0.63 0.00 88 1020.6
20260901011143 60 23 0.0 0.0 0.00 0.63 0.00 88 1020.6
20260901010643 60 23 0.0 0.0 0.00 0.63 0.00 88 1020.5
20260901010143 60 23 0.0 0.0 0.00 0.63 0.00 88 1020.6
20260901005646 60 23 0.0 0.0 0.00 0.63 0.00 88 1020.4
20260901005143 60 23 0.0 0.0 0.00 0.63 0.00 88 1020.5
20260901004643 60 23 0.0 0.0 0.02 0.63 0.00 88 1020.5
20260901004143 61 23 0.0 0.0 0.02 0.63 0.00 88 1020.4
20260901003143 61 23 0.0 0.0 0.02 0.63 0.00 88 1020.5
20260901002644 61 23 0.0 0.0 0.02 0.63 0.00 88 1020.5
20260901002144 61 23 0.0 0.0 0.02 0.63 0.00 88 1020.6
20260901001144 61 23 0.0 0.0 0.02 0.63 0.00 88 1020.6
20260901000644 61 23 0.0 0.0 0.02 0.63 0.00 88 1020.4
20260901000144 61 23 0.0 0.0 0.02 0.63 0.00 88 1020.4
20260831235645 61 23 0.0 0.0 0.02 0.63 0.00 87 1020.3
20260831234644 61 23 0.0 0.0 0.00 0.61 0.00 87 1020.4
20260831234145 61 23 0.0 0.0 0.00 0.61 0.00 87 1020.3
20260831233644 61 23 0.0 0.0 0.00 0.61 0.00 87 1020.2
20260831233145 61 23 0.0 0.0 0.00 0.61 0.00 86 1020.3
20260831232144 61 23 0.0 0.0 0.00 0.61 0.00 86 1020.3
20260831230644 61 23 0.0 0.0 0.00 0.61 0.00 86 1020.3
20260831230145 61 23 0.0 0.0 0.00 0.61 0.00 86 1020.5
20260831225645 61 23 0.0 0.0 0.00 0.61 0.00 86 1020.6
20260831225146 61 23 0.0 0.0 0.00 0.61 0.00 86 1020.8
20260831224645 61 23 0.0 0.0 0.02 0.61 0.00 86 1020.5
20260831223645 61 338 0.0 0.0 0.04 0.61 0.00 85 1020.6
20260831223145 61 338 0.0 0.0 0.04 0.61 0.00 85 1020.6
20260831222646 61 338 0.0 0.0 0.08 0.61 0.00 85 1020.6
20260831222145 61 338 0.0 0.0 0.08 0.61 0.00 85 1020.9
20260831221646 61 338 0.0 0.0 0.12 0.61 0.00 84 1021.1
20260831221145 61 270 0.0 0.0 0.12 0.61 0.00 84 1021.1
20260831220645 61 270 0.0 0.0 0.12 0.61 0.00 84 1021.3
20260831220146 61 270 0.0 0.0 0.12 0.61 0.00 84 1021.5
20260831215646 61 270 0.0 0.0 0.12 0.61 0.00 83 1021.1
20260831215145 61 0 0.0 0.0 0.12 0.61 0.00 83 1021.2
20260831214146 62 338 0.0 0.0 0.10 0.59 0.00 83 1020.8
20260831213645 62 338 1.0 3.0 0.08 0.57 0.00 82 1020.9
20260831212646 63 338 0.0 0.0 0.04 0.53 0.00 81 1021.3
20260831212146 65 338 2.0 6.0 0.00 0.49 0.00 79 1021.1
20260831211646 66 338 5.0 7.0 0.00 0.49 0.00 76 1020.8
20260831211146 67 0 8.0 13.0 0.00 0.49 0.00 74 1020.9
20260831210647 68 338 8.0 13.0 0.00 0.49 0.00 73 1020.5
20260831210146 68 338 4.0 9.0 0.00 0.49 0.00 76 1020.4
20260831205646 68 23 3.0 9.0 0.00 0.49 0.00 76 1019.9
20260831205146 68 23 3.0 5.0 0.00 0.49 0.00 77 1019.7
20260831204646 68 23 4.0 7.0 0.00 0.49 0.00 77 1019.3
20260831204146 68 23 3.0 7.0 0.00 0.49 0.00 77 1018.9
20260831203147 68 23 0.0 0.0 0.00 0.49 0.00 76 1018.2
20260831202647 68 23 0.0 0.0 0.00 0.49 0.00 76 1018.2
20260831202146 68 23 1.0 4.0 0.00 0.49 0.00 76 1018.0
20260831201146 68 0 0.0 0.0 0.00 0.49 0.00 76 1018.0
20260831200146 68 23 0.0 4.0 0.00 0.49 0.00 76 1017.9
20260831195648 68 23 1.0 5.0 0.00 0.49 0.00 76 1017.9
20260831195147 68 23 1.0 5.0 0.00 0.49 0.00 75 1017.9
20260831194147 69 23 0.0 3.0 0.00 0.49 0.00 75 1017.7
20260831193647 69 0 1.0 4.0 0.00 0.49 0.00 74 1017.5
20260831193147 69 0 1.0 5.0 0.00 0.49 0.00 74 1017.3
20260831192148 69 338 0.0 0.0 0.00 0.49 0.00 74 1017.6
20260831191647 69 315 0.0 2.0 0.00 0.49 0.00 73 1017.6
20260831191148 70 0 1.0 4.0 0.00 0.49 0.00 73 1017.6
20260831190647 70 293 3.0 7.0 0.00 0.49 0.00 72 1017.5
20260831190147 70 338 1.0 7.0 0.00 0.49 0.00 72 1017.5
20260831184648 69 293 0.0 0.0 0.00 0.49 0.00 73 1017.1
20260831184147 70 0 0.0 4.0 0.00 0.49 0.00 73 1016.9
20260831183649 70 315 1.0 4.0 0.00 0.49 0.00 72 1016.6
20260831183147 70 315 0.0 0.0 0.00 0.49 0.00 72 1016.5
20260831182148 71 293 0.0 0.0 0.00 0.49 0.00 71 1016.5
20260831181648 71 338 0.0 0.0 0.00 0.49 0.00 70 1016.2
20260831181148 71 315 0.0 0.0 0.00 0.49 0.00 69 1016.1
20260831180648 72 0 1.0 5.0 0.00 0.49 0.00 68 1015.9
20260831180148 72 338 2.0 5.0 0.00 0.49 0.00 67 1015.9
20260831175648 73 338 0.0 3.0 0.00 0.49 0.00 66 1016.0
20260831175148 74 0 3.0 9.0 0.00 0.49 0.00 63 1015.9
20260831174648 74 0 4.0 9.0 0.00 0.49 0.00 62 1015.9
20260831174148 75 338 2.0 7.0 0.00 0.49 0.00 60 1015.8
20260831173649 77 338 1.0 3.0 0.00 0.49 0.00 57 1015.7
20260831173148 78 0 4.0 11.0 0.00 0.49 0.00 55 1015.2
20260831172648 79 338 5.0 11.0 0.00 0.49 0.00 53 1015.2
20260831172148 80 338 4.0 4.0 0.00 0.49 0.00 50 1015.3
20260831171648 81 135 2.0 4.0 0.00 0.49 0.00 50 1015.2
20260831170149 82 68 0.0 0.0 0.00 0.49 0.00 48 1014.6
20260831165649 82 68 0.0 0.0 0.00 0.49 0.00 48 1014.4
20260831165149 83 68 0.0 0.0 0.00 0.49 0.00 47 1014.4
20260831164649 83 68 0.0 0.0 0.00 0.49 0.00 47 1014.6
20260831164150 83 180 0.0 0.0 0.00 0.49 0.00 47 1014.7
20260831163649 84 180 0.0 0.0 0.00 0.49 0.00 46 1014.7
20260831163149 85 23 0.0 0.0 0.00 0.49 0.00 45 1014.7
20260831162649 85 23 0.0 0.0 0.00 0.49 0.00 44 1014.9
20260831162149 86 23 0.0 0.0 0.00 0.49 0.00 43 1014.8
20260831161649 87 23 0.0 4.0 0.00 0.49 0.00 43 1014.8
20260831161149 87 23 1.0 4.0 0.00 0.49 0.00 42 1014.9
20260831160649 87 158 0.0 0.0 0.00 0.49 0.00 43 1014.8
20260831155650 88 158 0.0 0.0 0.00 0.49 0.00 42 1014.8
20260831155149 88 158 0.0 0.0 0.00 0.49 0.00 42 1014.9
20260831154649 88 158 1.0 4.0 0.00 0.49 0.00 41 1014.8
20260831154150 88 135 0.0 4.0 0.00 0.49 0.00 41 1015.0
20260831153650 88 45 0.0 0.0 0.00 0.49 0.00 41 1014.9
20260831153150 89 45 0.0 0.0 0.00 0.49 0.00 40 1015.0
20260831152150 89 158 0.0 0.0 0.00 0.49 0.00 39 1014.9
20260831151150 90 158 2.0 4.0 0.00 0.49 0.00 39 1015.2
20260831150650 91 158 2.0 4.0 0.00 0.49 0.00 39 1015.1
20260831150150 92 158 1.0 4.0 0.00 0.49 0.00 38 1015.1
20260831145650 92 135 0.0 0.0 0.00 0.49 0.00 38 1014.9
20260831145150 93 135 1.0 3.0 0.00 0.49 0.00 36 1015.0
20260831144151 94 135 0.0 3.0 0.00 0.49 0.00 35 1015.0
20260831143650 95 135 0.0 0.0 0.00 0.49 0.00 35 1015.1
20260831143150 95 45 0.0 0.0 0.00 0.49 0.00 36 1015.1
20260831142651 95 45 0.0 0.0 0.00 0.49 0.00 35 1015.0
20260831142150 96 158 0.0 0.0 0.00 0.49 0.00 35 1015.0
20260831141650 96 180 0.0 0.0 0.00 0.49 0.00 35 1015.1
20260831141150 96 180 0.0 0.0 0.00 0.49 0.00 35 1015.0
20260831140651 96 23 0.0 2.0 0.00 0.49 0.00 34 1014.9
20260831140151 96 23 3.0 8.0 0.00 0.49 0.00 34 1015.1
20260831135650 96 23 3.0 8.0 0.00 0.49 0.00 34 1015.3
20260831134651 95 338 0.0 0.0 0.00 0.49 0.00 35 1015.4
20260831134152 94 338 0.0 0.0 0.00 0.49 0.00 35 1015.3
20260831133651 93 23 0.0 0.0 0.00 0.49 0.00 35 1015.4
20260831133152 93 23 1.0 6.0 0.00 0.49 0.00 35 1015.3
20260831132651 94 23 3.0 6.0 0.00 0.49 0.00 34 1015.5
20260831132152 95 23 3.0 5.0 0.00 0.49 0.00 34 1015.3
20260831131651 95 23 6.0 9.0 0.00 0.49 0.00 34 1015.4
20260831131151 96 23 4.0 7.0 0.00 0.49 0.00 33 1015.5
20260831130151 96 203 0.0 0.0 0.00 0.49 0.00 36 1015.5
20260831125151 96 135 0.0 0.0 0.00 0.49 0.00 37 1015.5
20260831124651 96 68 0.0 0.0 0.00 0.49 0.00 35 1015.5
20260831124152 96 23 1.0 8.0 0.00 0.49 0.00 35 1015.5
20260831123652 96 0 2.0 8.0 0.00 0.49 0.00 34 1015.6
20260831123152 96 23 1.0 6.0 0.00 0.49 0.00 34 1015.7
20260831122652 97 135 0.0 0.0 0.00 0.49 0.00 36 1015.6
20260831122151 96 23 0.0 0.0 0.00 0.49 0.00 35 1015.6
20260831121652 97 23 0.0 0.0 0.00 0.49 0.00 35 1015.7
20260831121153 97 23 1.0 4.0 0.00 0.49 0.00 37 1015.6
20260831120652 97 23 1.0 4.0 0.00 0.49 0.00 36 1015.6
20260831120152 97 23 0.0 0.0 0.00 0.49 0.00 36 1015.5
20260831115652 98 23 0.0 0.0 0.00 0.49 0.00 34 1015.6
20260831115152 98 23 0.0 0.0 0.00 0.49 0.00 36 1015.5
20260831114654 98 23 0.0 0.0 0.00 0.49 0.00 37 1015.7
20260831114152 97 23 2.0 4.0 0.00 0.49 0.00 36 1015.7
20260831113652 97 23 2.0 4.0 0.00 0.49 0.00 36 1015.7
20260831113152 98 23 1.0 3.0 0.00 0.49 0.00 37 1015.8
20260831112653 97 23 1.0 3.0 0.00 0.49 0.00 38 1015.7
20260831112152 97 23 0.0 0.0 0.00 0.49 0.00 38 1015.7
20260831111652 96 23 0.0 5.0 0.00 0.49 0.00 39 1015.7
20260831111153 96 23 3.0 5.0 0.00 0.49 0.00 38 1015.8
20260831110652 96 23 4.0 6.0 0.00 0.49 0.00 38 1015.9
20260831105652 95 23 4.0 7.0 0.00 0.49 0.00 40 1015.7
20260831105153 94 23 4.0 7.0 0.00 0.49 0.00 41 1015.8
20260831104653 94 23 1.0 4.0 0.00 0.49 0.00 43 1015.7
20260831104153 92 23 0.0 0.0 0.00 0.49 0.00 46 1015.7
20260831103653 91 23 2.0 7.0 0.00 0.49 0.00 45 1015.8
20260831103153 90 338 2.0 7.0 0.00 0.51 0.00 45 1015.7
20260831102653 90 338 0.0 0.0 0.00 0.51 0.00 47 1015.7
20260831102153 89 23 1.0 3.0 0.00 0.51 0.00 48 1015.8
20260831101653 89 23 0.0 3.0 0.00 0.51 0.00 48 1015.8
20260831101153 88 23 0.0 0.0 0.00 0.51 0.00 50 1015.6
20260831100653 87 23 0.0 0.0 0.00 0.51 0.00 50 1015.8
20260831100153 87 23 0.0 0.0 0.00 0.51 0.00 50 1016.0
20260831095653 86 23 0.0 0.0 0.00 0.51 0.00 51 1016.2
20260831095153 86 23 0.0 4.0 0.00 0.51 0.00 52 1016.2
20260831094653 85 23 1.0 4.0 0.00 0.51 0.00 52 1016.2
20260831094153 85 23 0.0 0.0 0.00 0.51 0.00 53 1016.2
20260831093653 85 23 0.0 0.0 0.00 0.51 0.00 53 1016.2
20260831093153 85 23 0.0 0.0 0.00 0.51 0.00 54 1016.3
20260831092653 85 23 0.0 0.0 0.00 0.51 0.00 55 1016.4
20260831092154 84 23 0.0 5.0 0.00 0.51 0.00 55 1016.3
20260831091654 84 0 3.0 5.0 0.00 0.51 0.00 55 1016.5
20260831090654 83 23 4.0 7.0 0.00 0.51 0.00 56 1016.3
20260831090155 83 23 3.0 7.0 0.00 0.51 0.00 57 1016.4
20260831085654 83 23 3.0 6.0 0.00 0.51 0.00 57 1016.5
20260831085154 83 23 2.0 6.0 0.00 0.51 0.00 57 1016.6
20260831084654 83 23 0.0 2.0 0.00 0.51 0.00 58 1016.4
20260831083654 83 23 1.0 4.0 0.00 0.51 0.00 59 1016.5
20260831082654 82 23 0.0 0.0 0.00 0.59 0.00 59 1016.3
20260831082154 83 23 1.0 3.0 0.00 0.59 0.00 59 1016.5
20260831081155 84 23 2.0 3.0 0.00 0.59 0.00 61 1016.3
20260831080654 83 45 0.0 3.0 0.00 0.59 0.00 63 1016.3
20260831075655 81 68 0.0 0.0 0.00 0.59 0.00 69 1016.1
20260831075155 80 68 0.0 0.0 0.00 0.59 0.00 71 1016.0
20260831074655 79 135 0.0 0.0 0.02 0.59 0.00 75 1016.1
20260831074155 77 135 0.0 0.0 0.02 0.59 0.00 78 1016.1
20260831073655 76 135 0.0 0.0 0.02 0.59 0.00 80 1016.1
20260831072655 72 135 0.0 0.0 0.06 0.71 0.00 86 1016.1
20260831072155 71 135 0.0 0.0 0.06 0.71 0.00 87 1015.9
20260831071655 70 135 0.0 0.0 0.06 0.71 0.00 86 1015.9